Friday Harbor, WA

10:21 PM PST on January 19, 2017 (GMT -0800)
Friday Harbor

Weather History for KFHR - November, 2013

Change the Weather History Date:

Saturday, November 30, 2013

  Actual Average Record
Temperature  
Mean Temperature 47 °F -  
Max Temperature 48 °F 45 °F 54 °F (2002)
Min Temperature 46 °F 36 °F 21 °F (2014)
Degree Days  
Heating Degree Days 18    
Moisture  
Dew Point 45 °F    
Average Humidity 93    
Maximum Humidity 97    
Minimum Humidity 87    
Precipitation  
Precipitation 0.04 in - - ()
Sea Level Pressure  
Sea Level Pressure 30.25 in    
Wind  
Wind Speed 6 mph (ESE)    
Max Wind Speed 9 mph    
Max Gust Speed -    
Visibility 6 miles    
Events Rain    
Averages and records for this station are not official NWS values.
T = Trace of Precipitation, MM = Missing Value Source: NWS Daily Summary

Daily Weather History Graph

Daily Weather History Graph

Search for Another Location

Airport or City:

Trip Planner

Search our weather history database for the weather conditions in past years. The results will help you decide how hot, cold, wet, or windy it might be!

Date:

Astronomy

Nov. 30, 2013 Rise Set
Actual Time 7:42 AM PST 4:19 PM PST
Civil Twilight 7:06 AM PST 4:55 PM PST
Nautical Twilight 6:26 AM PST 5:34 PM PST
Astronomical Twilight 5:49 AM PST 6:12 PM PST
Moon 4:48 AM PST (11/30) 2:56 PM PST (11/30)
Length of Visible Light 9h 49m
Length of Day
8h 37m
Waning Crescent, 6% of the Moon is Illuminated
Nov 30
Waning Crescent
Dec 2
New
Dec 9
First Quarter
Dec 17
Full
Dec 25
Last Quarter

Hourly Weather History & Observations

Time (PST) Temp. Windchill Dew Point Humidity Pressure Visibility Wind Dir Wind Speed Gust Speed Precip Events Conditions
12:53 AM 46.0 °F 43.9 °F 44.1 °F 93% 30.31 in 5.0 mi SE 4.6 mph - N/A   Overcast
1:41 AM 46.0 °F 44.8 °F 44.1 °F 93% 30.31 in 5.0 mi SSE 3.5 mph - N/A   Overcast
1:53 AM 46.0 °F - 45.0 °F 96% 30.32 in 6.0 mi Calm Calm - N/A   Overcast
2:05 AM 46.0 °F 43.9 °F 44.1 °F 93% 30.31 in 6.0 mi East 4.6 mph - N/A   Overcast
2:29 AM 46.0 °F 43.1 °F 44.1 °F 93% 30.31 in 6.0 mi East 5.8 mph - N/A   Overcast
2:53 AM 46.0 °F 43.1 °F 45.0 °F 96% 30.32 in 6.0 mi East 5.8 mph - N/A   Overcast
3:30 AM 46.0 °F 43.1 °F 45.0 °F 96% 30.31 in 3.0 mi ESE 5.8 mph - N/A   Overcast
3:45 AM 46.0 °F 43.1 °F 45.0 °F 96% 30.31 in 2.5 mi ESE 5.8 mph - N/A   Overcast
3:53 AM 46.0 °F 43.1 °F 45.0 °F 96% 30.31 in 2.5 mi ESE 5.8 mph - N/A   Overcast
4:43 AM 46.0 °F 42.5 °F 45.0 °F 96% 30.30 in 3.0 mi ESE 6.9 mph - 0.00 in Rain Light Rain
4:53 AM 46.0 °F 42.5 °F 45.0 °F 96% 30.30 in 4.0 mi ESE 6.9 mph - 0.00 in   Overcast
5:24 AM 46.0 °F 42.5 °F 45.0 °F 96% 30.29 in 6.0 mi ESE 6.9 mph - N/A   Overcast
5:35 AM 46.0 °F 41.9 °F 45.0 °F 96% 30.29 in 6.0 mi East 8.1 mph - N/A   Overcast
5:53 AM 46.0 °F 41.4 °F 44.1 °F 93% 30.30 in 5.0 mi East 9.2 mph - N/A   Overcast
6:35 AM 46.0 °F 41.9 °F 44.1 °F 93% 30.29 in 3.0 mi East 8.1 mph - N/A   Overcast
6:53 AM 46.0 °F 42.5 °F 44.1 °F 93% 30.30 in 4.0 mi East 6.9 mph - N/A   Overcast
7:25 AM 46.0 °F 41.9 °F 44.1 °F 93% 30.30 in 3.0 mi East 8.1 mph - N/A   Overcast
7:35 AM 46.0 °F 41.4 °F 44.1 °F 93% 30.30 in 2.5 mi East 9.2 mph - N/A   Overcast
7:53 AM 46.0 °F 42.5 °F 44.1 °F 93% 30.30 in 2.0 mi East 6.9 mph - 0.00 in Rain Light Rain
8:13 AM 46.0 °F 42.5 °F 44.1 °F 93% 30.30 in 3.0 mi East 6.9 mph - 0.00 in Rain Light Rain
8:53 AM 46.0 °F 42.5 °F 44.1 °F 93% 30.30 in 10.0 mi East 6.9 mph - 0.00 in   Overcast
9:51 AM 46.4 °F 42.4 °F 44.6 °F 93% 30.30 in 2.5 mi East 8.1 mph - 0.00 in Rain Light Rain
9:53 AM 46.0 °F 41.9 °F 44.1 °F 93% 30.30 in 2.5 mi East 8.1 mph - 0.00 in Rain Light Rain
10:07 AM 46.0 °F 41.4 °F 45.0 °F 96% 30.29 in 3.0 mi East 9.2 mph - 0.00 in Rain Light Rain
10:50 AM 46.4 °F 42.4 °F 44.6 °F 93% 30.29 in 10.0 mi East 8.1 mph - 0.00 in   Overcast
10:53 AM 46.9 °F - 44.1 °F 90% 30.29 in 10.0 mi East 9.2 mph - 0.00 in   Overcast
11:15 AM 46.9 °F - 44.1 °F 90% 30.28 in 5.0 mi East 8.1 mph - N/A   Overcast
11:53 AM 46.0 °F 41.4 °F 45.0 °F 96% 30.28 in 3.0 mi ESE 9.2 mph - 0.00 in   Overcast
12:00 PM 46.0 °F 41.9 °F 45.0 °F 96% 30.27 in 2.5 mi ESE 8.1 mph - 0.00 in Rain Light Rain
12:36 PM 46.9 °F - 45.0 °F 93% 30.26 in 1.5 mi ESE 9.2 mph - 0.00 in Rain Light Rain
12:51 PM 46.4 °F 42.9 °F 44.6 °F 93% 30.25 in 2.5 mi ESE 6.9 mph - 0.00 in Rain Light Rain
12:53 PM 46.9 °F - 45.0 °F 93% 30.25 in 2.5 mi ESE 8.1 mph - 0.00 in Rain Light Rain
1:03 PM 46.9 °F - 45.0 °F 93% 30.25 in 1.2 mi ESE 9.2 mph - 0.03 in Rain Rain
1:13 PM 46.9 °F - 45.0 °F 93% 30.25 in 3.0 mi East 6.9 mph - 0.03 in Rain Light Rain
1:53 PM 46.9 °F - 45.0 °F 93% 30.24 in 7.0 mi East 4.6 mph - 0.04 in Rain Light Rain
2:12 PM 46.9 °F - 45.0 °F 93% 30.23 in 6.0 mi East 3.5 mph - 0.00 in Rain Light Rain
2:53 PM 46.9 °F - 45.0 °F 93% 30.22 in 10.0 mi ESE 6.9 mph - 0.00 in   Overcast
3:21 PM 48.0 °F - 45.0 °F 89% 30.22 in 10.0 mi ESE 6.9 mph - N/A   Overcast
3:49 PM 48.2 °F - 44.6 °F 87% 30.22 in 10.0 mi ESE 4.6 mph - 0.00 in Rain Light Rain
3:53 PM 48.0 °F - 45.0 °F 89% 30.22 in 10.0 mi ESE 5.8 mph - 0.00 in   Overcast
4:05 PM 48.0 °F - 45.0 °F 89% 30.22 in 10.0 mi ESE 5.8 mph - N/A   Overcast
4:31 PM 46.9 °F - 45.0 °F 93% 30.22 in 10.0 mi Calm Calm - N/A   Overcast
4:53 PM 46.9 °F - 46.0 °F 97% 30.22 in 10.0 mi SE 4.6 mph - 0.00 in   Overcast
5:53 PM 46.9 °F - 45.0 °F 93% 30.20 in 10.0 mi ESE 5.8 mph - 0.00 in   Overcast
6:53 PM 48.0 °F - 46.0 °F 93% 30.18 in 10.0 mi ESE 4.6 mph - N/A   Overcast
7:32 PM 48.0 °F - 45.0 °F 89% 30.16 in 10.0 mi SE 5.8 mph - N/A   Overcast
7:53 PM 48.0 °F - 46.0 °F 93% 30.17 in 10.0 mi SE 6.9 mph - N/A   Overcast
8:45 PM 48.0 °F - 46.0 °F 93% 30.14 in 10.0 mi SE 5.8 mph - 0.00 in   Overcast
8:53 PM 48.0 °F - 46.0 °F 93% 30.14 in 10.0 mi ESE 6.9 mph - 0.00 in Rain Light Rain
9:53 PM 48.0 °F - 46.0 °F 93% 30.12 in 8.0 mi SE 5.8 mph - 0.00 in Rain Light Rain
10:53 PM 48.0 °F - 46.9 °F 96% 30.09 in 10.0 mi SE 5.8 mph - 0.00 in Rain Light Rain
11:53 PM 48.0 °F - 46.9 °F 96% 30.06 in 8.0 mi SE 5.8 mph - 0.00 in Rain Light Rain